Regional Weather Roundup
Issued by NWS

Home | Current Version | Previous Version | Graphics & Text | Print | Product List | Glossary On
Versions: 1 2 3 4 5 6 7 8 9 10 11 12 13 14 15 16 17 18 19 20 21 22 23 24 25 26 27 28 29 30 31 32 33 34 35 36 37 38 39 40 41 42 43 44 45 46 47 48 49 50
101
ASUS45 KTFX 211310
RWRMT
MONTANA REGIONAL WEATHER ROUNDUP
NATIONAL WEATHER SERVICE GREAT FALLS MT
700 AM MDT FRI JUL 21 2017

NOTE: "FAIR" INDICATES FEW OR NO CLOUDS BELOW 12000 FEET WITH NO
SIGNIFICANT WEATHER AND/OR OBSTRUCTIONS TO VISIBILITY.

MTZ001>007-043-211400-
WEST OF THE DIVIDE

CITY           SKY/WX    TMP DP  RH WIND       PRES   REMARKS
KALISPELL      PTCLDY    47  41  80 CALM      30.07R
MISSOULA       CLEAR     51  39  63 CALM      30.12R
BUTTE          CLEAR     45  37  73 SE7       30.19R
MULLAN PASS    CLEAR     47  37  68 VRB3      30.18R
ANACONDA         N/A     52  39  62 CALM      30.16S
DEER LODGE       N/A     46  39  76 CALM      30.18R
EUREKA           N/A     52  39  62 MISG      30.05R
HAMILTON         N/A     55  43  62 S3        30.13R
LIBBY            N/A     46  39  76 SE3       30.06R
PLAINS           N/A     46  37  70 CALM      30.10R
$$

MTZ008-052>055-211400-
SOUTHWEST MONTANA

CITY           SKY/WX    TMP DP  RH WIND       PRES   REMARKS
DILLON         CLEAR     52  39  61 W14       30.15R
W YELLOWSTONE  CLEAR     41  36  81 CALM      30.24R
ENNIS          CLEAR     48  39  71 SE3       30.21R
THREE FORKS      N/A     49  42  76 CALM      30.10R
$$

MTZ009-010-012-014-046-048-049-054-211400-
EAST SLOPES AND CENTRAL MONTANA

CITY           SKY/WX    TMP DP  RH WIND       PRES   REMARKS
CUT BANK       PTCLDY    54  33  45 NW9       30.02R
GREAT FALLS    CLEAR     57  27  31 SW3       30.03S
HELENA         CLEAR     63  37  38 W8        30.10R
CHOTEAU          N/A     61  28  29 MISG      30.05S
$$

MTZ011-013-016-021-045-047-050-051-211400-
NORTH CENTRAL MONTANA

CITY           SKY/WX    TMP DP  RH WIND       PRES   REMARKS
HAVRE          MOSUNNY   60  38  43 SW8       29.94R
LEWISTOWN      SUNNY     60  33  36 W5        30.04R
N BAR RANCH      N/A     64  30  27 CALM      30.04R
CHINOOK          N/A     63  43  48 W6        29.92R
$$

MTZ017>020-022>027-061-062-211400-
NORTHEAST MONTANA

CITY           SKY/WX    TMP DP  RH WIND       PRES   REMARKS
GLASGOW        CLOUDY    66  55  67 S5        29.85R
JORDAN           N/A     62  53  72 W7        29.89R
SIDNEY         SUNNY     67  58  72 N8        29.84R
WOLF POINT     CLOUDY    67  58  72 W3        29.83R
MALTA          SUNNY     68  43  40 W13G18    29.86S
PLENTYWOOD       N/A     64  55  72 SW13      29.86R
POPLAR           N/A     66  59  77 NE6       29.80R
SCOBEY           N/A     64  45  50 SE3       29.84R
$$

MTZ028>42-056>058-211400-
SOUTHCENTRAL AND SOUTHEAST MONTANA

CITY           SKY/WX    TMP DP  RH WIND       PRES   REMARKS
BAKER          MOSUNNY   68  60  75 S5        29.86R
BILLINGS       SUNNY     69  32  25 NE3       30.01R
LIVINGSTON     CLEAR     59  35  40 W9        30.11R
MILES CITY     CLOUDY    71  51  49 W13       29.85R
BIG TIMBER     SUNNY     68  30  24 SW20      30.08R
FORSYTH          N/A     72  46  40 W7        29.91R
LAUREL           N/A     62  32  32 CALM      30.01S
ROUNDUP          N/A     71  30  22 W3        29.91R
$$

REGIONAL REPORTS...DAKOTAS

CITY           SKY/WX    TMP DP  RH WIND       PRES   REMARKS
WILLISTON      PTSUNNY   68  59  73 NE7       29.83R
MINOT          SUNNY     67  61  81 CALM      29.81S
DICKINSON      CLOUDY    68  63  84 SW9       29.81F
BEACH            N/A     68  64  88 CALM      29.87R
CROSBY           N/A     66  64  94 SE12      29.80F
TIOGA            N/A     63  63 100 E10       29.86R
WATFORD CITY     N/A     64  61  88 NE3       29.83R
BISMARCK       CLOUDY    70  64  81 N9        29.83R
GRAND FORKS    PTSUNNY   73  68  84 E7        29.79S
FARGO          CLOUDY    75  70  84 SE9       29.81R
BUFFALO SD       N/A     69  64  84 S13       29.81S
RAPID CITY     MOSUNNY   67  64  90 SE7       29.89F
$$

REGIONAL REPORTS...WYOMING/IDAHO/WASHINGTON

CITY           SKY/WX    TMP DP  RH WIND       PRES   REMARKS
GILLETTE       CLOUDY    70  55  59 W15       29.98R
SHERIDAN       CLOUDY    64  53  67 W8        30.02R
BUFFALO WY     CLOUDY    69  47  45 NW20      30.06R
CODY           SUNNY     60  47  61 CALM      30.12R
YELLOWSTONE LA   N/A     39  38  96 CALM      30.32R
IDAHO FALLS    CLOUDY    48  46  93 CALM      30.14R
BOISE          CLEAR     58  43  57 CALM      30.06R
SPOKANE        PTCLDY    52  43  71 S9        30.08R
$$

REGIONAL REPORTS...ALBERTA

CITY           SKY/WX    TMP DP  RH WIND       PRES   REMARKS
EDMONTON       CLOUDY    55  54  94 W8        29.80R
CALGARY        MOCLDY    59  36  41 W12       29.93S
LETHBRIDGE     PTCLDY    55  41  58 SW7       29.95S
MEDICINE HAT   PTSUNNY   55  50  82 SW7       29.91R
WATERTON GATE    N/A     59  37  44 SW3         N/A
MILK RIVER       N/A     50  41  71 W8          N/A
ONEFOUR          N/A     59  41  51 W15G21      N/A
$$

REGIONAL REPORTS...SASKATCHEWAN

CITY           SKY/WX    TMP DP  RH WIND       PRES   REMARKS
SWIFT CURRENT  SUNNY     59  52  77 SW15      29.83R
REGINA         MOSUNNY   66  59  77 E9        29.81S
SASKATOON      LGT RAIN  63  55  77 NE16G32   29.83F
CYPRESS HILLS    N/A     54  43  66 NW7         N/A
VAL MARIE        N/A     59  50  72 SW6         N/A
ROCKGLEN         N/A     59  54  82 SW7         N/A
ASSINIBOIA       N/A     54  54 100 SW3         N/A
$$




USA.gov is the U.S. government's official web portal to all federal, state and local government web resources and services.